This is the latest recevied weather packets stored in our database for station/object WJ9H. If no packets are shown the sender has not sent any weather packets the latest 1 day(s).
| Time | Temp. | Humidity | Pressure | Rain* | Wind** | Luminosity | Snow |
|---|---|---|---|---|---|---|---|
| 1778041776 | 5.56° C | - | 1011.9 hPa | 0 mm | 0 m/s | - | - |
| 1778041243 | 5.56° C | - | 1011.9 hPa | 0 mm | 0 m/s | - | - |
| 1778041176 | 5.56° C | - | 1011.9 hPa | 0 mm | 0 m/s | - | - |
| 1778040945 | 6.11° C | - | 1011.9 hPa | 0 mm | 0 m/s | - | - |
| 1778040887 | 6.11° C | - | 1011.9 hPa | 0 mm | 0 m/s | - | - |
| 1778040576 | 6.11° C | - | 1011.9 hPa | 0 mm | 0 m/s | - | - |
| 1778040180 | 6.67° C | - | 1011.9 hPa | 0 mm | 0 m/s | - | - |
| 1778039976 | 6.67° C | - | 1011.9 hPa | 0 mm | 0 m/s | - | - |
| 1778039689 | 6.67° C | - | 1011.9 hPa | 0 mm | 0 m/s | - | - |
| 1778039437 | 6.67° C | - | 1011.9 hPa | 0 mm | 0.45 m/s, 197° | - | - |
| 1778039375 | 6.67° C | - | 1011.9 hPa | 0 mm | 0.45 m/s, 197° | - | - |
| 1778039103 | 7.22° C | - | 1011.9 hPa | 0 mm | 1.79 m/s, 198° | - | - |
| 1778038777 | 7.22° C | - | 1011.9 hPa | 0 mm | 1.79 m/s, 198° | - | - |
| 1778038585 | 7.22° C | - | 1011.6 hPa | 0 mm | 1.79 m/s, 197° | - | - |
| 1778038488 | 7.22° C | - | 1011.6 hPa | 0 mm | 2.24 m/s, 195° | - | - |
| 1778038177 | 7.22° C | - | 1011.6 hPa | 0 mm | 1.79 m/s, 197° | - | - |
| 1778037635 | 7.22° C | - | 1011.6 hPa | 0 mm | 2.68 m/s, 191° | - | - |
| 1778037578 | 7.22° C | - | 1011.6 hPa | 0 mm | 2.68 m/s, 191° | - | - |
| 1778037288 | 7.22° C | - | 1011.6 hPa | 0 mm | 2.24 m/s, 204° | - | - |
| 1778037055 | 7.22° C | - | 1011.6 hPa | 0 mm | 2.24 m/s, 201° | - | - |
| 1778036976 | 7.22° C | - | 1011.6 hPa | 0 mm | 2.24 m/s, 201° | - | - |
| 1778036646 | 7.78° C | - | 1011.6 hPa | 0 mm | 2.24 m/s, 204° | - | - |
| 1778036375 | 7.78° C | - | 1011.6 hPa | 0 mm | 2.24 m/s, 204° | - | - |
| 1778036088 | 7.78° C | - | 1011.6 hPa | 0 mm | 2.24 m/s, 190° | - | - |
| 1778035838 | 7.78° C | - | 1011.6 hPa | 0 mm | 2.24 m/s, 198° | - | - |
* Rain latest hour (hover to see other rain measurements)
** Current wind speed in m/s (hover to see current wind gust speed)